Weather History for Champaign, IL

Change the Weather History Date:

Monday, June 3, 2013

  Actual Average Record
Temperature  
Mean Temperature 59 °F 69 °F  
Max Temperature 68 °F 81 °F 95 °F (2002)
Min Temperature 50 °F 57 °F 45 °F (2001)
Degree Days  
Heating Degree Days 6 1  
Month to date heating degree days 11 5  
Since 1 June heating degree days 11 5  
Since 1 July heating degree days 5649 5811  
Cooling Degree Days 0 5  
Month to date cooling degree days 2 15  
Year to date cooling degree days 134 107  
Since 1 June cooling degree days 2 15  
Growing Degree Days 8 (Base 50)    
Moisture  
Dew Point 45 °F    
Average Humidity 64    
Maximum Humidity 83    
Minimum Humidity 45    
Precipitation  
Precipitation 0.00 in 0.17 in 3.59 in (2008)
Month to date precipitation 0.47 0.53  
Year to date precipitation 16.15 15.69  
Sea Level Pressure  
Sea Level Pressure 30.06 in    
Wind  
Wind Speed 8 mph (NE)    
Max Wind Speed 17 mph    
Max Gust Speed 23 mph    
Visibility 10 miles    
Events      
T = Trace of Precipitation, MM = Missing Value Source: NWS Daily Summary

Daily Weather History Graph

Daily Weather History Graph

Search for Another Location

Airport:

Trip Planner

Search our weather history database for the weather conditions in past years. The results will help you decide how hot, cold, wet, or windy it might be!

Date:

Astronomy

Jun. 03, 2013 Rise Set
Actual Time 5:25 AM CDT 8:17 PM CDT
Civil Twilight 4:53 AM CDT 8:49 PM CDT
Nautical Twilight 4:12 AM CDT 9:30 PM CDT
Astronomical Twilight 3:25 AM CDT 10:17 PM CDT
Moon 2:23 AM CDT (6/3) 3:48 PM CDT (6/3)
Length of Visible Light 15h 56m
Length of Day
14h 52m
Waning Crescent, 22% of the Moon is Illuminated
Jun 3
Waning Crescent
Jun 8
New
Jun 16
First Quarter
Jun 23
Full
Jun 29
Last Quarter

Hourly Weather History & Observations

Time (CDT) Temp. Dew Point Humidity Pressure Visibility Wind Dir Wind Speed Gust Speed Precip Events Conditions
12:53 AM 54.0 °F 48.0 °F 80% 30.05 in 10.0 mi NE 4.6 mph - N/A   Overcast
1:53 AM 53.1 °F 46.9 °F 80% 30.04 in 10.0 mi ENE 8.1 mph - N/A   Overcast
2:53 AM 53.1 °F 46.0 °F 77% 30.03 in 10.0 mi NE 12.7 mph - N/A   Overcast
3:53 AM 52.0 °F 46.0 °F 80% 30.04 in 10.0 mi NE 5.8 mph - N/A   Overcast
4:53 AM 52.0 °F 46.0 °F 80% 30.05 in 10.0 mi NE 6.9 mph - N/A   Overcast
5:53 AM 50.0 °F 45.0 °F 83% 30.06 in 10.0 mi NNE 6.9 mph - N/A   Scattered Clouds
6:53 AM 53.1 °F 45.0 °F 74% 30.08 in 10.0 mi NNE 8.1 mph - N/A   Clear
7:53 AM 55.9 °F 43.0 °F 62% 30.09 in 10.0 mi NNE 10.4 mph - N/A   Clear
8:53 AM 59.0 °F 42.1 °F 53% 30.12 in 10.0 mi NNE 9.2 mph - N/A   Clear
9:53 AM 60.1 °F 43.0 °F 53% 30.12 in 10.0 mi NNE 12.7 mph 17.3 mph N/A   Clear
10:53 AM 62.1 °F 42.1 °F 48% 30.10 in 10.0 mi NNE 12.7 mph - N/A   Clear
11:53 AM 63.0 °F 44.1 °F 50% 30.09 in 10.0 mi ENE 10.4 mph - N/A   Partly Cloudy
12:53 PM 64.9 °F 46.0 °F 50% 30.08 in 10.0 mi ENE 10.4 mph 17.3 mph N/A   Clear
1:53 PM 64.9 °F 46.0 °F 50% 30.06 in 10.0 mi East 6.9 mph - N/A   Clear
2:53 PM 66.0 °F 46.0 °F 48% 30.05 in 10.0 mi ENE 5.8 mph - N/A   Clear
3:53 PM 66.9 °F 45.0 °F 45% 30.04 in 10.0 mi East 8.1 mph - N/A   Clear
4:53 PM 66.9 °F 45.0 °F 45% 30.03 in 10.0 mi East 8.1 mph - N/A   Clear
5:53 PM 66.9 °F 46.0 °F 47% 30.04 in 10.0 mi ENE 5.8 mph - N/A   Clear
6:53 PM 66.0 °F 46.0 °F 48% 30.04 in 10.0 mi ENE 4.6 mph - N/A   Clear
7:53 PM 63.0 °F 46.9 °F 56% 30.05 in 10.0 mi East 5.8 mph - N/A   Clear
8:53 PM 60.1 °F 48.0 °F 64% 30.06 in 10.0 mi NE 4.6 mph - N/A   Clear
9:53 PM 57.9 °F 46.0 °F 65% 30.08 in 10.0 mi NE 6.9 mph - N/A   Clear
10:53 PM 55.9 °F 46.9 °F 72% 30.08 in 10.0 mi NE 6.9 mph - N/A   Clear
11:53 PM 54.0 °F 46.9 °F 77% 30.08 in 10.0 mi ENE 5.8 mph - N/A   Clear